Orbital Elements at Epoch 2459200.5 (2020-Dec-17.0) TDB
Reference: JPL 17 (heliocentric ecliptic J2000)
Element | Value | Uncertainty (1-sigma) | Units |
e | .1415983466770832 | 5.1997e-08 | |
a | 2.370034563551561 | 9.8525e-09 | au |
q | 2.034441587785117 | 1.2874e-07 | au |
i | 2.921044955554807 | 4.8891e-06 | deg |
node | 187.315349279143 | 7.1907e-05 | deg |
peri | 212.913766369882 | 7.4614e-05 | deg |
M | 329.8306761586299 | 2.2422e-05 | deg |
tp | 2459312.184658951338 (2021-Apr-07.68465895) | 8.3466e-05 | TDB |
period | 1332.694011767937 3.65 | 8.3102e-06 2.275e-08 | d yr |
n | .2701295247229542 | 1.6844e-09 | deg/d |
Q | 2.705627539318004 | 1.1248e-08 | au |
|
| | Orbit Determination Parameters
Additional Information
|